Dati Storici

Data ora Umidita' aria (%) Temperatura aria (°C) Rad globale (W/m²) Gonioanemometro (°) Tacoanemometro (m/s) Pioggia (mm)
19-06-2020 05:30 97.6 % 17.054 211.21 -0.007 0 0
19-06-2020 05:20 97.7 % 16.533 69.892 -0.002 0 0
19-06-2020 05:10 97.7 % 16.628 214.29 0.609 0 0
19-06-2020 05:00 97.7 % 16.8 307.95 0.006 0 0
19-06-2020 04:50 97.7 % 16.626 192.057 0 0 0
19-06-2020 04:40 97.7 % 16.537 219.205 -0.002 0 0
19-06-2020 04:30 97.7 % 16.519 300.965 0.705 0 0
19-06-2020 04:20 97.7 % 16.508 297.718 -0.002 0 0
19-06-2020 04:10 97.7 % 16.507 21.203 0.103 0 0
19-06-2020 04:00 97.7 % 16.555 320.857 -0.001 0 0
19-06-2020 03:50 97.7 % 16.604 4.245 -0.001 0 0
19-06-2020 03:40 97.7 % 16.653 336.755 -0.004 0 0
19-06-2020 03:30 97.7 % 16.73 355.703 -0.003 0 0
19-06-2020 03:20 97.6 % 16.818 352.951 0.5 0 0
19-06-2020 03:10 97.6 % 16.9 345.683 -0.004 0 0
19-06-2020 03:00 97.7 % 16.85 263.093 -0.004 0 0
19-06-2020 02:50 97.6 % 16.816 4.997 -0.006 0 0
19-06-2020 02:40 97.6 % 16.823 20.863 -0.004 0 0
19-06-2020 02:30 97.6 % 16.939 67.287 -0.005 0 0
19-06-2020 02:20 97.6 % 16.963 15.134 -0.007 0 0

I dati sono presentati in modo automatico a scopo informativo. In seguito a verifica i dati possono subire modifiche o essere invalidati e non riportati negli archivi definitivi.